TimeCST,TemperatureF,Dew PointF,Humidity,Sea Level PressureIn,VisibilityMPH,Wind Direction,Wind SpeedMPH,Gust SpeedMPH,PrecipitationIn,Events,Conditions,WindDirDegrees,DateUTC
12:52 AM,39.9,32.0,73,30.17,10.0,SW,9.2,-,N/A,,Overcast,220,2013-01-06 06:52:00
1:52 AM,39.0,32.0,76,30.17,10.0,SSW,9.2,-,N/A,,Overcast,210,2013-01-06 07:52:00
2:52 AM,37.9,30.9,76,30.15,10.0,SW,8.1,-,N/A,,Overcast,220,2013-01-06 08:52:00
3:52 AM,34.0,28.9,82,30.13,10.0,SW,5.8,-,N/A,,Clear,220,2013-01-06 09:52:00
4:52 AM,37.9,30.0,73,30.12,10.0,WSW,11.5,-,N/A,,Clear,240,2013-01-06 10:52:00
5:52 AM,36.0,28.9,76,30.14,10.0,WSW,8.1,-,N/A,,Clear,240,2013-01-06 11:52:00
6:52 AM,35.1,28.9,78,30.17,10.0,WSW,6.9,-,N/A,,Clear,250,2013-01-06 12:52:00
7:52 AM,36.0,28.0,73,30.20,10.0,West,9.2,16.1,N/A,,Clear,280,2013-01-06 13:52:00
8:52 AM,37.0,27.0,67,30.22,10.0,WNW,10.4,19.6,N/A,,Mostly Cloudy,290,2013-01-06 14:52:00
9:52 AM,36.0,26.1,67,30.25,10.0,WNW,10.4,-,N/A,,Overcast,300,2013-01-06 15:52:00
10:52 AM,34.0,25.0,70,30.26,9.0,WNW,8.1,17.3,N/A,,Overcast,300,2013-01-06 16:52:00
11:09 AM,35.6,26.6,70,30.25,10.0,WNW,8.1,-,N/A,,Mostly Cloudy,290,2013-01-06 17:09:00
11:21 AM,35.6,24.8,65,30.25,10.0,NW,11.5,18.4,N/A,,Mostly Cloudy,320,2013-01-06 17:21:00
11:52 AM,35.1,24.1,64,30.26,10.0,NW,13.8,21.9,N/A,,Overcast,320,2013-01-06 17:52:00
12:52 PM,36.0,25.0,64,30.26,10.0,NNW,11.5,-,N/A,,Overcast,330,2013-01-06 18:52:00
1:47 PM,37.4,24.8,60,30.26,10.0,NW,12.7,-,N/A,,Scattered Clouds,320,2013-01-06 19:47:00
1:52 PM,37.0,25.0,62,30.28,10.0,NW,10.4,-,N/A,,Partly Cloudy,320,2013-01-06 19:52:00
2:52 PM,37.9,25.0,60,30.31,10.0,NNW,9.2,-,N/A,,Clear,330,2013-01-06 20:52:00
3:52 PM,37.0,25.0,62,30.34,10.0,North,8.1,-,N/A,,Clear,350,2013-01-06 21:52:00
4:52 PM,34.0,24.1,67,30.35,10.0,North,3.5,-,N/A,,Clear,360,2013-01-06 22:52:00
5:52 PM,33.1,23.0,66,30.38,10.0,Calm,Calm,-,N/A,,Clear,0,2013-01-06 23:52:00
6:52 PM,28.9,21.9,75,30.40,9.0,Calm,Calm,-,N/A,,Clear,0,2013-01-07 00:52:00
7:52 PM,28.0,23.0,81,30.40,7.0,Calm,Calm,-,N/A,,Clear,0,2013-01-07 01:52:00
8:52 PM,26.1,21.9,84,30.40,6.0,Calm,Calm,-,N/A,,Clear,0,2013-01-07 02:52:00
9:52 PM,25.0,21.0,85,30.41,5.0,Calm,Calm,-,N/A,,Clear,0,2013-01-07 03:52:00
10:52 PM,25.0,19.9,81,30.43,4.0,Calm,Calm,-,N/A,,Haze,0,2013-01-07 04:52:00
11:52 PM,24.1,19.0,81,30.43,3.0,Calm,Calm,-,N/A,,Haze,0,2013-01-07 05:52:00